PAL585 RPLL-VVDN

Flight info

Callsign PAL585
Flight time 2h 9m
Altitude 34000
Route SIRCA2R SIRCA L628 ARESI/K0857F340 L628 PCA/K0852F350 W2 CQ CQ2K
Aircraft A321/M-SDE3FGHIRWY/LB1

Departure

Time 2026-04-18 03:50
Airport Ninoy Aquino International Airport (RPLL)

Arrival

Time 2026-04-18 05:59
Airport Da Nang International Airport (VVDN)
Time Latitude Longitude Altitude Speed Heading
2026-04-18 03:18 14.50471 121.00403 97 ft 0 kts 120°
2026-04-18 03:36 14.50476 121.00394 60 ft 3 kts 120°
2026-04-18 03:36 14.50488 121.00373 60 ft 3 kts 120°
2026-04-18 03:37 14.50499 121.00353 60 ft 3 kts 120°
2026-04-18 03:37 14.50509 121.00338 60 ft 3 kts 140°
2026-04-18 03:37 14.50525 121.00330 60 ft 3 kts 192°
2026-04-18 03:37 14.50542 121.00339 65 ft 3 kts 235°
2026-04-18 03:38 14.50540 121.00335 66 ft 3 kts 238°
2026-04-18 03:38 14.50528 121.00316 63 ft 3 kts 235°
2026-04-18 03:38 14.50512 121.00301 69 ft 3 kts 211°
2026-04-18 03:38 14.50490 121.00296 69 ft 3 kts 187°
2026-04-18 03:39 14.50468 121.00294 63 ft 3 kts 185°
2026-04-18 03:39 14.50445 121.00292 65 ft 3 kts 185°
2026-04-18 03:39 14.50422 121.00290 66 ft 3 kts 185°
2026-04-18 03:39 14.50399 121.00288 65 ft 3 kts 184°
2026-04-18 03:40 14.50376 121.00286 60 ft 3 kts 184°
2026-04-18 03:40 14.50370 121.00286 62 ft 0 kts 184°
2026-04-18 03:44 14.50368 121.00286 62 ft 1 kts 184°
2026-04-18 03:44 14.50359 121.00285 67 ft 2 kts 184°
2026-04-18 03:45 14.50342 121.00284 66 ft 3 kts 184°
2026-04-18 03:45 14.50317 121.00281 64 ft 4 kts 184°
2026-04-18 03:45 14.50284 121.00279 65 ft 5 kts 184°
2026-04-18 03:45 14.50246 121.00285 63 ft 6 kts 155°
2026-04-18 03:46 14.50206 121.00308 61 ft 7 kts 150°
2026-04-18 03:46 14.50159 121.00334 66 ft 8 kts 153°
2026-04-18 03:46 14.50111 121.00316 65 ft 8 kts 231°
2026-04-18 03:46 14.50081 121.00263 62 ft 9 kts 240°
2026-04-18 03:47 14.50048 121.00204 68 ft 10 kts 240°
2026-04-18 03:47 14.50013 121.00141 61 ft 11 kts 240°
2026-04-18 03:47 14.49975 121.00073 62 ft 11 kts 240°
2026-04-18 03:47 14.49938 121.00007 64 ft 10 kts 240°
2026-04-18 03:48 14.49889 120.99966 69 ft 8 kts 182°
2026-04-18 03:48 14.49838 120.99987 66 ft 7 kts 153°
2026-04-18 03:48 14.49805 121.00023 68 ft 7 kts 109°
2026-04-18 03:48 14.49813 121.00059 66 ft 5 kts 60°
2026-04-18 03:49 14.49838 121.00103 64 ft 12 kts 59°
2026-04-18 03:49 14.49959 121.00319 63 ft 69 kts 60°
2026-04-18 03:49 14.50307 121.00944 60 ft 129 kts 60°
2026-04-18 03:49 14.50836 121.01891 127 ft 168 kts 62°
2026-04-18 03:50 14.51424 121.02928 740 ft 168 kts 62°
2026-04-18 03:50 14.52007 121.03979 1386 ft 169 kts 62°
2026-04-18 03:50 14.52596 121.05005 1958 ft 169 kts 60°
2026-04-18 03:50 14.53205 121.06048 2505 ft 169 kts 60°
2026-04-18 03:51 14.53815 121.07089 3009 ft 170 kts 59°
2026-04-18 03:51 14.54443 121.08155 3348 ft 182 kts 60°
2026-04-18 03:51 14.55127 121.09340 3503 ft 202 kts 63°
2026-04-18 03:51 14.55415 121.10808 3629 ft 221 kts 97°
2026-04-18 03:52 14.54796 121.12334 3733 ft 246 kts 129°
2026-04-18 03:52 14.53458 121.13507 4076 ft 263 kts 144°
2026-04-18 03:52 14.51914 121.14570 4697 ft 269 kts 145°
2026-04-18 03:52 14.50328 121.15617 5352 ft 272 kts 147°
2026-04-18 03:53 14.48587 121.16410 5978 ft 277 kts 169°
2026-04-18 03:53 14.46722 121.16290 6913 ft 267 kts 197°
2026-04-18 03:53 14.45133 121.15319 7583 ft 268 kts 225°
2026-04-18 03:53 14.44028 121.13762 8189 ft 270 kts 238°
2026-04-18 03:54 14.43076 121.12080 8801 ft 273 kts 240°
2026-04-18 03:54 14.42163 121.10384 9388 ft 276 kts 244°
2026-04-18 03:54 14.41681 121.08462 9927 ft 279 kts 269°
2026-04-18 03:54 14.41765 121.06455 10460 ft 280 kts 274°
2026-04-18 03:55 14.41891 121.04446 10990 ft 281 kts 275°
2026-04-18 03:55 14.42020 121.02421 11526 ft 283 kts 275°
2026-04-18 03:55 14.42143 121.00416 12064 ft 284 kts 275°
2026-04-18 03:55 14.42270 120.98370 12610 ft 286 kts 275°
2026-04-18 03:56 14.42396 120.96320 13144 ft 287 kts 275°
2026-04-18 03:56 14.42522 120.94247 13681 ft 289 kts 276°
2026-04-18 03:56 14.42648 120.92168 14151 ft 291 kts 276°
2026-04-18 03:56 14.42768 120.90074 14611 ft 293 kts 273°
2026-04-18 03:57 14.42407 120.85837 15514 ft 299 kts 264°
2026-04-18 03:57 14.42246 120.83724 15937 ft 299 kts 276°
2026-04-18 03:57 14.42409 120.81580 16383 ft 300 kts 277°
2026-04-18 03:58 14.42577 120.79422 16828 ft 302 kts 277°
2026-04-18 03:58 14.42745 120.77250 17261 ft 304 kts 277°
2026-04-18 03:58 14.42912 120.75061 17697 ft 307 kts 277°
2026-04-18 03:58 14.43082 120.72852 18140 ft 308 kts 277°
2026-04-18 03:59 14.43252 120.70636 18523 ft 311 kts 277°
2026-04-18 03:59 14.43419 120.68432 18888 ft 313 kts 276°
2026-04-18 03:59 14.43589 120.66187 19260 ft 314 kts 276°
2026-04-18 03:59 14.43761 120.63928 19623 ft 317 kts 276°
2026-04-18 04:00 14.43935 120.61653 19988 ft 318 kts 276°
2026-04-18 04:00 14.44110 120.59368 20360 ft 320 kts 275°
2026-04-18 04:00 14.44284 120.57068 20717 ft 322 kts 275°
2026-04-18 04:00 14.44459 120.54750 21062 ft 325 kts 275°
2026-04-18 04:01 14.44635 120.52417 21405 ft 327 kts 275°
2026-04-18 04:01 14.44809 120.50091 21752 ft 329 kts 274°
2026-04-18 04:01 14.44986 120.47723 22103 ft 332 kts 274°
2026-04-18 04:01 14.45166 120.45337 22431 ft 334 kts 274°
2026-04-18 04:02 14.45348 120.42934 22781 ft 336 kts 274°
2026-04-18 04:02 14.45530 120.40519 23129 ft 338 kts 273°
2026-04-18 04:02 14.45714 120.38089 23448 ft 341 kts 273°
2026-04-18 04:02 14.45897 120.35641 23734 ft 342 kts 273°
2026-04-18 04:03 14.46018 120.33211 24010 ft 343 kts 268°
2026-04-18 04:03 14.45884 120.30746 24282 ft 344 kts 264°
2026-04-18 04:03 14.45703 120.28272 24552 ft 346 kts 264°
2026-04-18 04:03 14.45527 120.25809 24828 ft 347 kts 265°
2026-04-18 04:04 14.45353 120.23317 25109 ft 348 kts 265°
2026-04-18 04:04 14.45179 120.20813 25388 ft 350 kts 265°
2026-04-18 04:04 14.45003 120.18303 25654 ft 351 kts 265°
2026-04-18 04:04 14.44822 120.15782 25938 ft 353 kts 265°
2026-04-18 04:05 14.44640 120.13254 26218 ft 354 kts 265°
2026-04-18 04:05 14.44460 120.10717 26494 ft 355 kts 265°
2026-04-18 04:05 14.44280 120.08189 26751 ft 357 kts 265°
2026-04-18 04:05 14.44099 120.05632 27025 ft 358 kts 265°
2026-04-18 04:06 14.43914 120.03059 27295 ft 359 kts 265°
2026-04-18 04:06 14.43728 120.00476 27555 ft 361 kts 265°
2026-04-18 04:06 14.43542 119.97879 27800 ft 363 kts 265°
2026-04-18 04:06 14.43356 119.95274 28055 ft 365 kts 265°
2026-04-18 04:07 14.43170 119.92686 28319 ft 366 kts 265°
2026-04-18 04:07 14.42983 119.90056 28577 ft 368 kts 265°
2026-04-18 04:07 14.42792 119.87418 28802 ft 370 kts 265°
2026-04-18 04:07 14.42599 119.84763 29049 ft 372 kts 265°
2026-04-18 04:08 14.42405 119.82090 29294 ft 373 kts 265°
2026-04-18 04:08 14.42209 119.79404 29551 ft 375 kts 265°
2026-04-18 04:08 14.42017 119.76746 29790 ft 376 kts 265°
2026-04-18 04:08 14.41822 119.74044 30017 ft 379 kts 265°
2026-04-18 04:09 14.41626 119.71328 30218 ft 380 kts 265°
2026-04-18 04:09 14.41427 119.68598 30416 ft 382 kts 265°
2026-04-18 04:09 14.41225 119.65857 30624 ft 383 kts 265°
2026-04-18 04:09 14.41024 119.63137 30825 ft 385 kts 265°
2026-04-18 04:10 14.40820 119.60373 31004 ft 387 kts 265°
2026-04-18 04:10 14.40613 119.57595 31200 ft 389 kts 265°
2026-04-18 04:10 14.40407 119.54801 31403 ft 390 kts 265°
2026-04-18 04:10 14.40204 119.51996 31605 ft 392 kts 265°
2026-04-18 04:11 14.39998 119.49185 31806 ft 393 kts 265°
2026-04-18 04:11 14.39790 119.46365 31992 ft 395 kts 265°
2026-04-18 04:11 14.39579 119.43529 32166 ft 397 kts 265°
2026-04-18 04:11 14.39369 119.40714 32343 ft 399 kts 265°
2026-04-18 04:12 14.39158 119.37857 32532 ft 400 kts 265°
2026-04-18 04:12 14.38947 119.34987 32720 ft 401 kts 265°
2026-04-18 04:12 14.38731 119.32094 32900 ft 403 kts 265°
2026-04-18 04:12 14.38514 119.29205 33084 ft 404 kts 265°
2026-04-18 04:13 14.38295 119.26302 33238 ft 406 kts 265°
2026-04-18 04:13 14.38078 119.23428 33398 ft 408 kts 265°
2026-04-18 04:13 14.37859 119.20504 33562 ft 409 kts 265°
2026-04-18 04:13 14.37641 119.17573 33737 ft 410 kts 265°
2026-04-18 04:14 14.37419 119.14630 33910 ft 411 kts 265°
2026-04-18 04:14 14.36969 119.08670 33959 ft 421 kts 265°
2026-04-18 04:15 14.36508 119.02599 33961 ft 433 kts 265°
2026-04-18 04:15 14.36026 118.96313 33956 ft 445 kts 265°
2026-04-18 04:16 14.35536 118.89860 33956 ft 454 kts 265°
2026-04-18 04:16 14.35037 118.83373 33960 ft 456 kts 265°
2026-04-18 04:17 14.34530 118.76830 33959 ft 456 kts 265°
2026-04-18 04:17 14.34027 118.70350 33958 ft 456 kts 265°
2026-04-18 04:18 14.33615 118.64916 33968 ft 456 kts 265°
2026-04-18 04:18 14.33113 118.58371 33970 ft 457 kts 265°
2026-04-18 04:19 14.32599 118.51824 33986 ft 457 kts 265°
2026-04-18 04:19 14.32087 118.45287 33983 ft 457 kts 265°
2026-04-18 04:20 14.31576 118.38784 33988 ft 457 kts 265°
2026-04-18 04:20 14.31064 118.32245 33989 ft 457 kts 265°
2026-04-18 04:21 14.30547 118.25699 33983 ft 457 kts 265°
2026-04-18 04:21 14.30028 118.19202 33982 ft 456 kts 265°
2026-04-18 04:22 14.29507 118.12666 33985 ft 456 kts 265°
2026-04-18 04:22 14.28987 118.06149 33987 ft 456 kts 265°
2026-04-18 04:23 14.28464 117.99668 33984 ft 456 kts 265°
2026-04-18 04:23 14.27937 117.93140 33980 ft 456 kts 265°
2026-04-18 04:24 14.27412 117.86616 33984 ft 456 kts 265°
2026-04-18 04:24 14.26891 117.80142 33980 ft 455 kts 265°
2026-04-18 04:25 14.26364 117.73629 33986 ft 455 kts 265°
2026-04-18 04:25 14.25831 117.67110 33975 ft 455 kts 265°
2026-04-18 04:26 14.25300 117.60636 33976 ft 455 kts 265°
2026-04-18 04:26 14.24768 117.54125 33980 ft 455 kts 265°
2026-04-18 04:27 14.24237 117.47623 33976 ft 455 kts 265°
2026-04-18 04:27 14.23702 117.41164 33983 ft 454 kts 265°
2026-04-18 04:28 14.23161 117.34667 33980 ft 454 kts 265°
2026-04-18 04:28 14.22621 117.28179 33975 ft 454 kts 265°
2026-04-18 04:29 14.22079 117.21700 33975 ft 453 kts 265°
2026-04-18 04:29 14.21543 117.15250 33973 ft 453 kts 265°
2026-04-18 04:30 14.21004 117.08768 33977 ft 453 kts 265°
2026-04-18 04:30 14.20455 117.02281 33978 ft 453 kts 265°
2026-04-18 04:31 14.19904 116.95794 33978 ft 453 kts 265°
2026-04-18 04:31 14.19354 116.89359 33976 ft 453 kts 265°
2026-04-18 04:32 14.18794 116.82870 33980 ft 453 kts 265°
2026-04-18 04:32 14.18240 116.76385 33976 ft 453 kts 265°
2026-04-18 04:33 14.17696 116.69946 33975 ft 453 kts 265°
2026-04-18 04:33 14.17146 116.63478 33980 ft 453 kts 265°
2026-04-18 04:34 14.16588 116.57007 33979 ft 453 kts 265°
2026-04-18 04:34 14.16023 116.50527 33980 ft 453 kts 265°
2026-04-18 04:35 14.15463 116.44086 33981 ft 453 kts 265°
2026-04-18 04:35 14.14902 116.37641 33981 ft 453 kts 265°
2026-04-18 04:36 14.14335 116.31166 33983 ft 452 kts 265°
2026-04-18 04:36 14.13768 116.24694 33988 ft 452 kts 265°
2026-04-18 04:37 14.13198 116.18266 33983 ft 453 kts 265°
2026-04-18 04:37 14.12633 116.11792 33979 ft 453 kts 265°
2026-04-18 04:38 14.12067 116.05368 33989 ft 453 kts 265°
2026-04-18 04:38 14.11497 115.98897 33979 ft 453 kts 265°
2026-04-18 04:39 14.10920 115.92415 33985 ft 453 kts 265°
2026-04-18 04:39 14.10345 115.85993 33981 ft 453 kts 265°
2026-04-18 04:40 14.09762 115.79511 33986 ft 453 kts 265°
2026-04-18 04:40 14.09180 115.73039 33982 ft 453 kts 265°
2026-04-18 04:41 14.08598 115.66572 33984 ft 453 kts 265°
2026-04-18 04:41 14.08015 115.60115 33980 ft 453 kts 265°
2026-04-18 04:42 14.07427 115.53680 33981 ft 453 kts 265°
2026-04-18 04:42 14.06840 115.47206 33984 ft 453 kts 265°
2026-04-18 04:43 14.06261 115.40774 33980 ft 453 kts 265°
2026-04-18 04:43 14.05672 115.34317 33982 ft 453 kts 265°
2026-04-18 04:44 14.05086 115.27880 33979 ft 453 kts 265°
2026-04-18 04:44 14.04492 115.21417 33981 ft 452 kts 265°
2026-04-18 04:45 14.03888 115.14958 33987 ft 452 kts 265°
2026-04-18 04:45 14.03292 115.08542 33982 ft 452 kts 265°
2026-04-18 04:46 14.02703 115.02084 33983 ft 452 kts 265°
2026-04-18 04:46 14.02102 114.95636 33980 ft 452 kts 265°
2026-04-18 04:47 14.01495 114.89198 33984 ft 452 kts 265°
2026-04-18 04:47 14.00899 114.82795 33982 ft 451 kts 265°
2026-04-18 04:48 14.00300 114.76348 33979 ft 451 kts 265°
2026-04-18 04:48 13.99697 114.69902 33976 ft 451 kts 265°
2026-04-18 04:49 13.99088 114.63464 33978 ft 451 kts 265°
2026-04-18 04:49 13.98482 114.57060 33979 ft 451 kts 265°
2026-04-18 04:50 13.97866 114.50628 33982 ft 451 kts 265°
2026-04-18 04:50 13.97335 114.44229 33971 ft 450 kts 271°
2026-04-18 04:51 13.97391 114.37778 33978 ft 450 kts 271°
2026-04-18 04:51 13.97436 114.31315 33976 ft 450 kts 271°
2026-04-18 04:52 13.97480 114.24902 33983 ft 451 kts 271°
2026-04-18 04:52 13.97524 114.18447 33979 ft 451 kts 271°
2026-04-18 04:53 13.97567 114.11982 33980 ft 450 kts 271°
2026-04-18 04:53 13.97605 114.05526 33978 ft 450 kts 271°
2026-04-18 04:54 13.97638 113.99101 33982 ft 450 kts 271°
2026-04-18 04:54 13.97673 113.92644 33978 ft 450 kts 271°
2026-04-18 04:55 13.97718 113.86224 33981 ft 449 kts 271°
2026-04-18 04:55 13.97757 113.79775 33982 ft 450 kts 271°
2026-04-18 04:56 13.97798 113.70143 33978 ft 450 kts 270°
2026-04-18 04:56 13.97821 113.63691 33977 ft 450 kts 271°
2026-04-18 04:57 13.97848 113.57245 33977 ft 449 kts 270°
2026-04-18 04:57 13.97869 113.50847 33982 ft 449 kts 270°
2026-04-18 04:58 13.97890 113.44405 33977 ft 449 kts 270°
2026-04-18 04:58 13.97911 113.38000 33977 ft 449 kts 270°
2026-04-18 04:59 13.97930 113.31555 33981 ft 449 kts 270°
2026-04-18 04:59 13.97957 113.25114 33981 ft 449 kts 270°
2026-04-18 05:00 13.97973 113.18674 33979 ft 449 kts 270°
2026-04-18 05:00 13.97990 113.12266 33979 ft 449 kts 270°
2026-04-18 05:01 13.98007 113.05818 33983 ft 449 kts 270°
2026-04-18 05:01 13.98012 113.00458 33981 ft 449 kts 270°
2026-04-18 05:02 13.98024 112.94010 33982 ft 449 kts 270°
2026-04-18 05:02 13.98030 112.87602 33988 ft 449 kts 270°
2026-04-18 05:03 13.98035 112.81154 33981 ft 449 kts 270°
2026-04-18 05:03 13.98042 112.74752 33982 ft 449 kts 270°
2026-04-18 05:04 13.98050 112.68308 33979 ft 449 kts 270°
2026-04-18 05:04 13.98051 112.61874 33983 ft 449 kts 270°
2026-04-18 05:05 13.98045 112.55441 33989 ft 449 kts 270°
2026-04-18 05:05 13.98047 112.49002 33982 ft 449 kts 270°
2026-04-18 05:06 13.98047 112.42595 33981 ft 449 kts 270°
2026-04-18 05:06 13.98042 112.36195 33979 ft 448 kts 270°
2026-04-18 05:07 13.98037 112.29757 33978 ft 448 kts 270°
2026-04-18 05:07 13.98036 112.23331 33980 ft 448 kts 270°
2026-04-18 05:08 13.98031 112.16912 33981 ft 448 kts 270°
2026-04-18 05:08 13.98021 112.10523 33981 ft 448 kts 270°
2026-04-18 05:09 13.98001 112.04100 33980 ft 448 kts 270°
2026-04-18 05:09 13.97979 111.97678 33974 ft 448 kts 270°
2026-04-18 05:10 13.97963 111.91297 33976 ft 448 kts 270°
2026-04-18 05:10 13.97955 111.84882 33976 ft 447 kts 270°
2026-04-18 05:11 13.97939 111.78471 33983 ft 447 kts 270°
2026-04-18 05:11 13.97918 111.72069 33978 ft 446 kts 269°
2026-04-18 05:12 13.97895 111.65712 33973 ft 446 kts 269°
2026-04-18 05:12 13.97870 111.59305 33964 ft 446 kts 269°
2026-04-18 05:13 13.97842 111.52908 33964 ft 446 kts 269°
2026-04-18 05:13 13.97810 111.46570 33964 ft 446 kts 269°
2026-04-18 05:14 13.97780 111.40174 33965 ft 446 kts 269°
2026-04-18 05:14 13.97748 111.33782 33962 ft 446 kts 269°
2026-04-18 05:15 13.97713 111.27433 33960 ft 446 kts 269°
2026-04-18 05:15 13.97671 111.21041 33957 ft 446 kts 269°
2026-04-18 05:16 13.97633 111.14652 33959 ft 446 kts 269°
2026-04-18 05:16 13.97598 111.08260 33962 ft 446 kts 269°
2026-04-18 05:17 13.97564 111.01860 33964 ft 446 kts 269°
2026-04-18 05:17 13.97524 110.95505 33962 ft 446 kts 269°
2026-04-18 05:18 13.97469 110.89097 33961 ft 446 kts 269°
2026-04-18 05:18 13.97417 110.82736 33963 ft 447 kts 269°
2026-04-18 05:19 13.97367 110.76341 33961 ft 446 kts 269°
2026-04-18 05:19 13.97322 110.69933 33963 ft 446 kts 269°
2026-04-18 05:20 13.97277 110.63536 33962 ft 447 kts 269°
2026-04-18 05:20 13.97217 110.57127 33959 ft 447 kts 269°
2026-04-18 05:21 13.97157 110.50760 33959 ft 447 kts 269°
2026-04-18 05:21 13.97101 110.44366 33961 ft 446 kts 269°
2026-04-18 05:22 13.97043 110.37966 33955 ft 446 kts 269°
2026-04-18 05:22 13.96984 110.31581 33957 ft 446 kts 269°
2026-04-18 05:23 13.96929 110.25229 33962 ft 446 kts 269°
2026-04-18 05:23 13.96871 110.18842 33960 ft 446 kts 269°
2026-04-18 05:24 13.96801 110.12453 33955 ft 446 kts 269°
2026-04-18 05:24 13.96734 110.06092 33954 ft 445 kts 269°
2026-04-18 05:25 13.96665 109.99700 33953 ft 445 kts 269°
2026-04-18 05:25 13.96602 109.93343 33956 ft 445 kts 269°
2026-04-18 05:26 13.96559 109.86967 33952 ft 445 kts 269°
2026-04-18 05:26 13.96512 109.80588 33953 ft 445 kts 269°
2026-04-18 05:27 13.96456 109.74206 33953 ft 444 kts 269°
2026-04-18 05:27 13.96397 109.67877 33949 ft 444 kts 269°
2026-04-18 05:28 13.96338 109.61505 33947 ft 444 kts 269°
2026-04-18 05:28 13.96282 109.55140 33944 ft 444 kts 269°
2026-04-18 05:29 13.96222 109.48784 33945 ft 444 kts 269°
2026-04-18 05:29 13.96156 109.42458 33949 ft 444 kts 269°
2026-04-18 05:30 13.96087 109.36086 33950 ft 444 kts 269°
2026-04-18 05:30 13.96017 109.29722 33947 ft 444 kts 269°
2026-04-18 05:31 13.95950 109.23384 33948 ft 444 kts 269°
2026-04-18 05:31 13.95881 109.17013 33945 ft 444 kts 269°
2026-04-18 05:32 13.96232 109.10729 33933 ft 444 kts 285°
2026-04-18 05:32 13.97413 109.07787 33931 ft 445 kts 300°
2026-04-18 05:32 13.99312 109.05266 33927 ft 448 kts 315°
2026-04-18 05:33 14.01815 109.03346 33920 ft 451 kts 330°
2026-04-18 05:33 14.04756 109.02171 33918 ft 455 kts 345°
2026-04-18 05:33 14.10951 109.00740 33815 ft 458 kts 345°
2026-04-18 05:34 14.14029 109.00034 33558 ft 459 kts 345°
2026-04-18 05:34 14.17158 108.99316 33303 ft 459 kts 345°
2026-04-18 05:34 14.20277 108.98598 33044 ft 460 kts 345°
2026-04-18 05:34 14.23402 108.97879 32660 ft 460 kts 345°
2026-04-18 05:35 14.26559 108.97149 31905 ft 463 kts 345°
2026-04-18 05:35 14.29694 108.96422 31434 ft 459 kts 345°
2026-04-18 05:35 14.32807 108.95698 30882 ft 458 kts 345°
2026-04-18 05:35 14.35884 108.94985 30348 ft 457 kts 345°
2026-04-18 05:36 14.38990 108.94267 29758 ft 455 kts 345°
2026-04-18 05:36 14.42077 108.93553 29193 ft 452 kts 345°
2026-04-18 05:36 14.45142 108.92844 28653 ft 449 kts 345°
2026-04-18 05:36 14.48179 108.92140 28115 ft 445 kts 345°
2026-04-18 05:37 14.51160 108.91449 27591 ft 442 kts 345°
2026-04-18 05:37 14.54160 108.90753 27063 ft 439 kts 345°
2026-04-18 05:37 14.57132 108.90064 26546 ft 436 kts 345°
2026-04-18 05:37 14.60090 108.89375 26036 ft 433 kts 345°
2026-04-18 05:38 14.63028 108.88693 25535 ft 430 kts 345°
2026-04-18 05:38 14.65942 108.88020 25052 ft 427 kts 345°
2026-04-18 05:38 14.68802 108.87360 24575 ft 424 kts 345°
2026-04-18 05:38 14.71675 108.86696 24102 ft 420 kts 345°
2026-04-18 05:39 14.74531 108.86034 23641 ft 418 kts 345°
2026-04-18 05:39 14.77359 108.85378 23129 ft 415 kts 345°
2026-04-18 05:39 14.80164 108.84727 22674 ft 411 kts 345°
2026-04-18 05:39 14.82950 108.84078 22215 ft 408 kts 345°
2026-04-18 05:40 14.85712 108.83434 21750 ft 405 kts 345°
2026-04-18 05:40 14.88456 108.82795 21280 ft 403 kts 345°
2026-04-18 05:40 14.91157 108.82165 20815 ft 401 kts 345°
2026-04-18 05:40 14.93877 108.81529 20342 ft 399 kts 345°
2026-04-18 05:41 14.96576 108.80899 19867 ft 397 kts 345°
2026-04-18 05:41 14.99263 108.80270 19404 ft 395 kts 345°
2026-04-18 05:41 15.01943 108.79643 18930 ft 393 kts 345°
2026-04-18 05:41 15.04578 108.79025 18469 ft 391 kts 345°
2026-04-18 05:42 15.07233 108.78403 17963 ft 390 kts 345°
2026-04-18 05:42 15.09873 108.77785 17473 ft 387 kts 345°
2026-04-18 05:42 15.12486 108.77176 17011 ft 383 kts 345°
2026-04-18 05:42 15.15078 108.76571 16539 ft 379 kts 346°
2026-04-18 05:43 15.17618 108.75979 16088 ft 376 kts 346°
2026-04-18 05:43 15.20168 108.75383 15630 ft 372 kts 346°
2026-04-18 05:43 15.22689 108.74792 15175 ft 369 kts 346°
2026-04-18 05:43 15.25190 108.74205 14725 ft 367 kts 347°
2026-04-18 05:44 15.27670 108.73625 14274 ft 364 kts 347°
2026-04-18 05:44 15.30132 108.73049 13824 ft 361 kts 347°
2026-04-18 05:44 15.32545 108.72484 13352 ft 358 kts 347°
2026-04-18 05:44 15.34960 108.71916 12901 ft 354 kts 347°
2026-04-18 05:45 15.37348 108.71354 12467 ft 349 kts 347°
2026-04-18 05:45 15.39702 108.70767 12035 ft 346 kts 343°
2026-04-18 05:45 15.41900 108.69789 11613 ft 343 kts 330°
2026-04-18 05:45 15.43850 108.68383 11191 ft 340 kts 323°
2026-04-18 05:46 15.45725 108.66898 10759 ft 337 kts 323°
2026-04-18 05:46 15.46957 108.65927 10484 ft 334 kts 323°
2026-04-18 05:46 15.48802 108.64476 10220 ft 326 kts 323°
2026-04-18 05:46 15.51141 108.62640 10063 ft 311 kts 324°
2026-04-18 05:47 15.52273 108.61753 9990 ft 303 kts 324°
2026-04-18 05:47 15.53935 108.60449 9776 ft 296 kts 324°
2026-04-18 05:47 15.55575 108.59161 9393 ft 294 kts 324°
2026-04-18 05:47 15.57210 108.57871 9006 ft 293 kts 323°
2026-04-18 05:48 15.58813 108.56605 8646 ft 291 kts 323°
2026-04-18 05:48 15.60333 108.55211 8223 ft 292 kts 311°
2026-04-18 05:48 15.61411 108.53423 7874 ft 293 kts 292°
2026-04-18 05:48 15.61923 108.51408 7730 ft 286 kts 278°
2026-04-18 05:49 15.62143 108.49378 7564 ft 280 kts 278°
2026-04-18 05:49 15.62362 108.47390 7400 ft 273 kts 278°
2026-04-18 05:49 15.62579 108.45458 7234 ft 267 kts 278°
2026-04-18 05:49 15.62793 108.43568 7082 ft 260 kts 278°
2026-04-18 05:50 15.63001 108.41743 6929 ft 254 kts 278°
2026-04-18 05:50 15.63204 108.39933 6782 ft 252 kts 278°
2026-04-18 05:50 15.63345 108.38121 6632 ft 252 kts 270°
2026-04-18 05:50 15.63164 108.36308 6473 ft 252 kts 262°
2026-04-18 05:51 15.62920 108.34510 6306 ft 252 kts 263°
2026-04-18 05:51 15.62680 108.32711 6135 ft 251 kts 263°
2026-04-18 05:51 15.62442 108.30925 5976 ft 250 kts 263°
2026-04-18 05:51 15.62364 108.29161 5810 ft 247 kts 280°
2026-04-18 05:52 15.62957 108.27507 5665 ft 244 kts 305°
2026-04-18 05:52 15.64149 108.26271 5514 ft 242 kts 329°
2026-04-18 05:52 15.65712 108.25655 5411 ft 241 kts 352°
2026-04-18 05:52 15.67371 108.25341 5292 ft 242 kts 347°
2026-04-18 05:53 15.69003 108.24987 5174 ft 242 kts 351°
2026-04-18 05:53 15.70669 108.24720 5050 ft 242 kts 352°
2026-04-18 05:53 15.72336 108.24482 4911 ft 241 kts 352°
2026-04-18 05:53 15.73993 108.24244 4805 ft 237 kts 352°
2026-04-18 05:54 15.75598 108.24011 4649 ft 228 kts 352°
2026-04-18 05:54 15.77154 108.23786 4518 ft 224 kts 352°
2026-04-18 05:54 15.78698 108.23563 4391 ft 223 kts 352°
2026-04-18 05:54 15.80235 108.23340 4299 ft 224 kts 352°
2026-04-18 05:55 15.81769 108.23118 4046 ft 221 kts 352°
2026-04-18 05:55 15.83274 108.22900 3779 ft 220 kts 352°
2026-04-18 05:55 15.84796 108.22679 3505 ft 220 kts 352°
2026-04-18 05:55 15.86305 108.22461 3230 ft 219 kts 352°
2026-04-18 05:56 15.87812 108.22242 2955 ft 218 kts 353°
2026-04-18 05:56 15.89305 108.22026 2700 ft 212 kts 353°
2026-04-18 05:56 15.90749 108.21816 2416 ft 208 kts 353°
2026-04-18 05:56 15.92145 108.21614 2137 ft 195 kts 353°
2026-04-18 05:57 15.94568 108.21261 1693 ft 160 kts 354°
2026-04-18 05:57 15.95641 108.21106 1512 ft 153 kts 356°
2026-04-18 05:57 15.96699 108.20953 1286 ft 152 kts 355°
2026-04-18 05:58 15.97739 108.20803 1120 ft 151 kts 354°
2026-04-18 05:58 15.98786 108.20650 902 ft 152 kts 354°
2026-04-18 05:58 15.99848 108.20497 711 ft 154 kts 355°
2026-04-18 05:58 16.00942 108.20339 493 ft 161 kts 357°
2026-04-18 05:59 16.02047 108.20182 302 ft 161 kts 354°
2026-04-18 05:59 16.03139 108.20016 58 ft 156 kts 355°
2026-04-18 05:59 16.04122 108.19879 32 ft 113 kts 352°
2026-04-18 05:59 16.04606 108.19808 34 ft 37 kts 352°
2026-04-18 06:00 16.04859 108.19771 35 ft 36 kts 352°
2026-04-18 06:00 16.05088 108.19738 34 ft 30 kts 352°
2026-04-18 06:00 16.05293 108.19708 32 ft 28 kts 353°
2026-04-18 06:00 16.05474 108.19681 31 ft 21 kts 352°
2026-04-18 06:01 16.05603 108.19664 32 ft 16 kts 353°
2026-04-18 06:01 16.05707 108.19669 32 ft 12 kts 43°
2026-04-18 06:01 16.05724 108.19728 32 ft 7 kts 81°
2026-04-18 06:01 16.05732 108.19784 31 ft 9 kts 81°
2026-04-18 06:02 16.05742 108.19852 32 ft 10 kts 82°
2026-04-18 06:02 16.05752 108.19926 33 ft 10 kts 81°
2026-04-18 06:02 16.05730 108.19984 34 ft 7 kts 149°
2026-04-18 06:02 16.05709 108.19990 34 ft 0 kts 169°
2026-04-18 06:03 16.05706 108.19990 34 ft 1 kts 169°
2026-04-18 06:03 16.05693 108.19993 34 ft 3 kts 169°
2026-04-18 06:03 16.05669 108.19997 34 ft 4 kts 171°
2026-04-18 06:04 16.05633 108.20002 34 ft 6 kts 172°
2026-04-18 06:04 16.05586 108.20009 34 ft 8 kts 172°
2026-04-18 06:04 16.05551 108.20045 34 ft 8 kts 101°
2026-04-18 06:04 16.05555 108.20099 35 ft 6 kts 83°
2026-04-18 06:05 16.05559 108.20136 35 ft 3 kts 82°
2026-04-18 06:05 16.05561 108.20152 35 ft 0 kts 82°